| time (UTC) | temp F | wind direction | speed MPH | gust MPH | rain 1hr in | rain 24hr in | rain mn in | humidity % | barometer mb |
| 20260906162256 | 0 | 0.0 | 0.0 | 0.00 | 0.00 | 0.00 | |||
| 20260906161958 | 57 | 321 | 3.0 | 5.0 | 0.00 | 0.00 | 0.00 | 80 | 1016.2 |
| 20260906161752 | 0 | 0.0 | 0.0 | 0.00 | 0.00 | 0.00 | |||
| 20260906161458 | 57 | 309 | 4.0 | 7.0 | 0.00 | 0.00 | 0.00 | 78 | 1016.4 |
| 20260906161257 | 0 | 0.0 | 0.0 | 0.00 | 0.00 | 0.00 | |||
| 20260906160958 | 57 | 303 | 2.0 | 4.0 | 0.00 | 0.00 | 0.00 | 76 | 1016.4 |
| 20260906160751 | 0 | 0.0 | 0.0 | 0.00 | 0.00 | 0.00 | |||
| 20260906160457 | 57 | 308 | 3.0 | 5.0 | 0.00 | 0.00 | 0.00 | 76 | 1016.4 |
| 20260906160250 | 0 | 0.0 | 0.0 | 0.00 | 0.00 | 0.00 | |||
| 20260906155957 | 57 | 306 | 3.0 | 4.0 | 0.00 | 0.00 | 0.00 | 74 | 1016.4 |
| 20260906155746 | 0 | 0.0 | 0.0 | 0.00 | 0.00 | 0.00 | |||
| 20260906155459 | 57 | 293 | 3.0 | 5.0 | 0.00 | 0.00 | 0.00 | 73 | 1016.4 |
| 20260906155247 | 0 | 0.0 | 0.0 | 0.00 | 0.00 | 0.00 | |||
| 20260906154957 | 57 | 309 | 4.0 | 5.0 | 0.00 | 0.00 | 0.00 | 73 | 1016.4 |
| 20260906154744 | 0 | 0.0 | 0.0 | 0.00 | 0.00 | 0.00 | |||
| 20260906154458 | 57 | 310 | 2.0 | 4.0 | 0.00 | 0.00 | 0.00 | 73 | 1016.4 |
| 20260906154244 | 0 | 0.0 | 0.0 | 0.00 | 0.00 | 0.00 | |||
| 20260906153957 | 57 | 284 | 3.0 | 8.0 | 0.00 | 0.00 | 0.00 | 73 | 1016.5 |
| 20260906153741 | 0 | 0.0 | 0.0 | 0.00 | 0.00 | 0.00 | |||
| 20260906153457 | 57 | 300 | 2.0 | 5.0 | 0.00 | 0.00 | 0.00 | 73 | 1016.5 |
| 20260906153241 | 0 | 0.0 | 0.0 | 0.00 | 0.00 | 0.00 | |||
| 20260906152957 | 57 | 299 | 1.0 | 3.0 | 0.00 | 0.00 | 0.00 | 72 | 1016.5 |
| 20260906152741 | 0 | 0.0 | 0.0 | 0.00 | 0.00 | 0.00 | |||
| 20260906152457 | 56 | 323 | 3.0 | 5.0 | 0.00 | 0.00 | 0.00 | 73 | 1016.5 |
| 20260906152242 | 0 | 0.0 | 0.0 | 0.00 | 0.00 | 0.00 | |||
| 20260906151957 | 56 | 300 | 0.0 | 2.0 | 0.00 | 0.00 | 0.00 | 73 | 1016.6 |
| 20260906151458 | 55 | 305 | 1.0 | 2.0 | 0.00 | 0.00 | 0.00 | 73 | 1016.7 |
| 20260906151241 | 0 | 0.0 | 0.0 | 0.00 | 0.00 | 0.00 | |||
| 20260906150957 | 55 | 124 | 2.0 | 3.0 | 0.00 | 0.00 | 0.00 | 74 | 1016.7 |
| 20260906150458 | 55 | 288 | 0.0 | 1.0 | 0.00 | 0.00 | 0.00 | 74 | 1016.8 |
| 20260906145958 | 56 | 266 | 2.0 | 3.0 | 0.00 | 0.00 | 0.00 | 72 | 1016.8 |
| 20260906145457 | 56 | 7 | 3.0 | 5.0 | 0.00 | 0.00 | 0.00 | 70 | 1016.6 |
| 20260906145238 | 0 | 0.0 | 0.0 | 0.00 | 0.00 | 0.00 | |||
| 20260906144957 | 56 | 35 | 0.0 | 3.0 | 0.00 | 0.00 | 0.00 | 70 | 1016.7 |
| 20260906144735 | 0 | 0.0 | 0.0 | 0.00 | 0.00 | 0.00 | |||
| 20260906144458 | 56 | 188 | 1.0 | 3.0 | 0.00 | 0.00 | 0.00 | 70 | 1016.6 |
| 20260906144235 | 0 | 0.0 | 0.0 | 0.00 | 0.00 | 0.00 | |||
| 20260906143957 | 56 | 325 | 2.0 | 5.0 | 0.00 | 0.00 | 0.00 | 70 | 1016.6 |
| 20260906143735 | 0 | 0.0 | 0.0 | 0.00 | 0.00 | 0.00 | |||
| 20260906143457 | 56 | 335 | 3.0 | 7.0 | 0.00 | 0.00 | 0.00 | 71 | 1016.6 |
| 20260906143236 | 0 | 0.0 | 0.0 | 0.00 | 0.00 | 0.00 | |||
| 20260906142958 | 56 | 342 | 1.0 | 3.0 | 0.00 | 0.00 | 0.00 | 70 | 1016.7 |
| 20260906142735 | 0 | 0.0 | 0.0 | 0.00 | 0.00 | 0.00 | |||
| 20260906142457 | 56 | 80 | 3.0 | 4.0 | 0.00 | 0.00 | 0.00 | 69 | 1016.7 |
| 20260906142235 | 0 | 0.0 | 0.0 | 0.00 | 0.00 | 0.00 | |||
| 20260906141957 | 56 | 325 | 1.0 | 2.0 | 0.00 | 0.00 | 0.00 | 68 | 1016.7 |
| 20260906141736 | 0 | 0.0 | 0.0 | 0.00 | 0.00 | 0.00 | |||
| 20260906141457 | 56 | 93 | 5.0 | 7.0 | 0.00 | 0.00 | 0.00 | 67 | 1016.6 |
| 20260906141238 | 0 | 0.0 | 0.0 | 0.00 | 0.00 | 0.00 | |||
| 20260906140958 | 57 | 108 | 1.0 | 2.0 | 0.00 | 0.00 | 0.00 | 66 | 1016.5 |
| 20260906140736 | 0 | 0.0 | 0.0 | 0.00 | 0.00 | 0.00 | |||
| 20260906140457 | 57 | 222 | 1.0 | 2.0 | 0.00 | 0.00 | 0.00 | 65 | 1016.5 |
| 20260906140230 | 0 | 0.0 | 0.0 | 0.00 | 0.00 | 0.00 | |||
| 20260906135958 | 57 | 206 | 1.0 | 3.0 | 0.00 | 0.00 | 0.00 | 66 | 1016.4 |
| 20260906135730 | 0 | 0.0 | 0.0 | 0.00 | 0.00 | 0.00 | |||
| 20260906135457 | 57 | 230 | 0.0 | 0.0 | 0.00 | 0.00 | 0.00 | 66 | 1016.1 |
| 20260906134958 | 57 | 108 | 1.0 | 3.0 | 0.00 | 0.00 | 0.00 | 66 | 1016.1 |
| 20260906134730 | 0 | 0.0 | 0.0 | 0.00 | 0.00 | 0.00 | |||
| 20260906134457 | 57 | 43 | 1.0 | 2.0 | 0.00 | 0.00 | 0.00 | 66 | 1016.0 |
| 20260906134227 | 0 | 0.0 | 0.0 | 0.00 | 0.00 | 0.00 | |||
| 20260906133958 | 57 | 122 | 1.0 | 2.0 | 0.00 | 0.00 | 0.00 | 67 | 1016.0 |
| 20260906133724 | 0 | 0.0 | 0.0 | 0.00 | 0.00 | 0.00 | |||
| 20260906133457 | 56 | 106 | 2.0 | 3.0 | 0.00 | 0.00 | 0.00 | 68 | 1016.0 |
| 20260906132957 | 56 | 300 | 0.0 | 2.0 | 0.00 | 0.00 | 0.00 | 71 | 1016.0 |
| 20260906132724 | 0 | 0.0 | 0.0 | 0.00 | 0.00 | 0.00 | |||
| 20260906132457 | 57 | 322 | 2.0 | 3.0 | 0.00 | 0.00 | 0.00 | 68 | 1016.0 |
| 20260906132223 | 0 | 0.0 | 0.0 | 0.00 | 0.00 | 0.00 | |||
| 20260906131957 | 58 | 280 | 0.0 | 2.0 | 0.00 | 0.00 | 0.00 | 65 | 1015.9 |
| 20260906131723 | 0 | 0.0 | 0.0 | 0.00 | 0.00 | 0.00 | |||
| 20260906131457 | 58 | 343 | 1.0 | 3.0 | 0.00 | 0.00 | 0.00 | 65 | 1015.8 |
| 20260906131224 | 0 | 0.0 | 0.0 | 0.00 | 0.00 | 0.00 | |||
| 20260906131001 | 58 | 200 | 1.0 | 2.0 | 0.00 | 0.00 | 0.00 | 65 | 1015.8 |
| 20260906130723 | 0 | 0.0 | 0.0 | 0.00 | 0.00 | 0.00 | |||
| 20260906130457 | 58 | 323 | 2.0 | 4.0 | 0.00 | 0.00 | 0.00 | 66 | 1015.9 |
| 20260906125957 | 58 | 290 | 1.0 | 1.0 | 0.00 | 0.00 | 0.00 | 66 | 1016.0 |
| 20260906125723 | 0 | 0.0 | 0.0 | 0.00 | 0.00 | 0.00 | |||
| 20260906125457 | 58 | 358 | 0.0 | 2.0 | 0.00 | 0.00 | 0.00 | 64 | 1016.0 |
| 20260906125223 | 0 | 0.0 | 0.0 | 0.00 | 0.00 | 0.00 | |||
| 20260906125003 | 59 | 77 | 3.0 | 5.0 | 0.00 | 0.00 | 0.00 | 63 | 1015.9 |
| 20260906124720 | 0 | 0.0 | 0.0 | 0.00 | 0.00 | 0.00 | |||
| 20260906124458 | 59 | 108 | 2.0 | 4.0 | 0.00 | 0.00 | 0.00 | 63 | 1016.0 |
| 20260906124219 | 0 | 0.0 | 0.0 | 0.00 | 0.00 | 0.00 | |||
| 20260906123958 | 58 | 105 | 3.0 | 5.0 | 0.00 | 0.00 | 0.00 | 63 | 1016.0 |
| 20260906123719 | 0 | 0.0 | 0.0 | 0.00 | 0.00 | 0.00 | |||
| 20260906123457 | 58 | 62 | 2.0 | 3.0 | 0.00 | 0.00 | 0.00 | 63 | 1016.0 |
| 20260906123219 | 0 | 0.0 | 0.0 | 0.00 | 0.00 | 0.00 | |||
| 20260906122958 | 58 | 134 | 0.0 | 2.0 | 0.00 | 0.00 | 0.00 | 63 | 1016.1 |
| 20260906122720 | 0 | 0.0 | 0.0 | 0.00 | 0.00 | 0.00 | |||
| 20260906122457 | 58 | 108 | 2.0 | 3.0 | 0.00 | 0.00 | 0.00 | 63 | 1016.1 |
| 20260906122221 | 0 | 0.0 | 0.0 | 0.00 | 0.00 | 0.00 | |||
| 20260906121957 | 58 | 81 | 1.0 | 2.0 | 0.00 | 0.00 | 0.00 | 63 | 1016.2 |
| 20260906121720 | 0 | 0.0 | 0.0 | 0.00 | 0.00 | 0.00 | |||
| 20260906121457 | 58 | 117 | 0.0 | 2.0 | 0.00 | 0.00 | 0.00 | 63 | 1016.2 |
| 20260906121220 | 0 | 0.0 | 0.0 | 0.00 | 0.00 | 0.00 | |||
| 20260906120959 | 58 | 95 | 2.0 | 4.0 | 0.00 | 0.00 | 0.00 | 64 | 1016.2 |
| 20260906120721 | 0 | 0.0 | 0.0 | 0.00 | 0.00 | 0.00 | |||
| 20260906120457 | 58 | 85 | 1.0 | 2.0 | 0.00 | 0.00 | 0.00 | 65 | 1016.4 |
| 20260906120220 | 0 | 0.0 | 0.0 | 0.00 | 0.00 | 0.00 | |||
| 20260906115958 | 58 | 108 | 1.0 | 3.0 | 0.00 | 0.00 | 0.00 | 63 | 1016.4 |
| 20260906115717 | 0 | 0.0 | 0.0 | 0.00 | 0.00 | 0.00 | |||
| 20260906115457 | 57 | 59 | 2.0 | 3.0 | 0.00 | 0.00 | 0.00 | 65 | 1016.2 |
| 20260906115217 | 0 | 0.0 | 0.0 | 0.00 | 0.00 | 0.00 | |||
| 20260906114957 | 57 | 59 | 1.0 | 2.0 | 0.00 | 0.00 | 0.00 | 66 | 1016.4 |
| 20260906114718 | 0 | 0.0 | 0.0 | 0.00 | 0.00 | 0.00 | |||
| 20260906114457 | 56 | 358 | 1.0 | 2.0 | 0.00 | 0.00 | 0.00 | 69 | 1016.4 |
| 20260906114215 | 0 | 0.0 | 0.0 | 0.00 | 0.00 | 0.00 | |||
| 20260906113958 | 57 | 51 | 1.0 | 2.0 | 0.00 | 0.00 | 0.00 | 69 | 1016.4 |
| 20260906113457 | 57 | 347 | 0.0 | 1.0 | 0.00 | 0.00 | 0.00 | 68 | 1016.4 |
| 20260906113215 | 0 | 0.0 | 0.0 | 0.00 | 0.00 | 0.00 | |||
| 20260906112957 | 57 | 306 | 2.0 | 3.0 | 0.00 | 0.00 | 0.00 | 66 | 1016.2 |
| 20260906112716 | 0 | 0.0 | 0.0 | 0.00 | 0.00 | 0.00 | |||
| 20260906112457 | 57 | 303 | 0.0 | 2.0 | 0.00 | 0.00 | 0.00 | 68 | 1016.4 |
| 20260906112215 | 0 | 0.0 | 0.0 | 0.00 | 0.00 | 0.00 | |||
| 20260906111957 | 57 | 67 | 0.0 | 2.0 | 0.00 | 0.00 | 0.00 | 68 | 1016.4 |
| 20260906111715 | 0 | 0.0 | 0.0 | 0.00 | 0.00 | 0.00 | |||
| 20260906111457 | 58 | 82 | 1.0 | 2.0 | 0.00 | 0.00 | 0.00 | 67 | 1016.4 |
| 20260906111216 | 0 | 0.0 | 0.0 | 0.00 | 0.00 | 0.00 | |||
| 20260906110957 | 58 | 127 | 1.0 | 3.0 | 0.00 | 0.00 | 0.00 | 66 | 1016.4 |
| 20260906110715 | 0 | 0.0 | 0.0 | 0.00 | 0.00 | 0.00 | |||
| 20260906110458 | 58 | 288 | 2.0 | 2.0 | 0.00 | 0.00 | 0.00 | 66 | 1016.2 |
| 20260906105957 | 58 | 343 | 2.0 | 3.0 | 0.00 | 0.00 | 0.00 | 67 | 1016.2 |
| 20260906105716 | 0 | 0.0 | 0.0 | 0.00 | 0.00 | 0.00 | |||
| 20260906105457 | 57 | 308 | 1.0 | 3.0 | 0.00 | 0.00 | 0.00 | 68 | 1016.4 |
| 20260906105217 | 0 | 0.0 | 0.0 | 0.00 | 0.00 | 0.00 | |||
| 20260906104957 | 57 | 248 | 0.0 | 2.0 | 0.00 | 0.00 | 0.00 | 69 | 1016.4 |
| 20260906104716 | 0 | 0.0 | 0.0 | 0.00 | 0.00 | 0.00 | |||
| 20260906104458 | 57 | 144 | 0.0 | 1.0 | 0.00 | 0.00 | 0.00 | 70 | 1016.4 |
| 20260906104213 | 0 | 0.0 | 0.0 | 0.00 | 0.00 | 0.00 | |||
| 20260906103957 | 57 | 60 | 1.0 | 2.0 | 0.00 | 0.00 | 0.00 | 71 | 1016.4 |
| 20260906103458 | 57 | 63 | 0.0 | 2.0 | 0.00 | 0.00 | 0.00 | 70 | 1016.4 |
| 20260906103213 | 0 | 0.0 | 0.0 | 0.00 | 0.00 | 0.00 | |||
| 20260906102958 | 57 | 65 | 2.0 | 4.0 | 0.00 | 0.00 | 0.00 | 70 | 1016.2 |
| 20260906102457 | 57 | 56 | 1.0 | 4.0 | 0.00 | 0.00 | 0.00 | 71 | 1016.2 |
| 20260906102211 | 0 | 0.0 | 0.0 | 0.00 | 0.00 | 0.00 | |||
| 20260906101957 | 57 | 83 | 0.0 | 2.0 | 0.00 | 0.00 | 0.00 | 71 | 1016.2 |
| 20260906101710 | 0 | 0.0 | 0.0 | 0.00 | 0.00 | 0.00 | |||
| 20260906101457 | 57 | 21 | 0.0 | 2.0 | 0.00 | 0.00 | 0.00 | 71 | 1016.2 |
| 20260906101211 | 0 | 0.0 | 0.0 | 0.00 | 0.00 | 0.00 | |||
| 20260906100957 | 57 | 17 | 1.0 | 2.0 | 0.00 | 0.00 | 0.00 | 71 | 1016.4 |
| 20260906100711 | 0 | 0.0 | 0.0 | 0.00 | 0.00 | 0.00 | |||
| 20260906100458 | 57 | 53 | 1.0 | 2.0 | 0.00 | 0.00 | 0.00 | 71 | 1016.4 |
| 20260906100211 | 0 | 0.0 | 0.0 | 0.00 | 0.00 | 0.00 | |||
| 20260906095957 | 57 | 42 | 0.0 | 2.0 | 0.00 | 0.00 | 0.00 | 71 | 1016.4 |
| 20260906095711 | 0 | 0.0 | 0.0 | 0.00 | 0.00 | 0.00 | |||
| 20260906095457 | 57 | 304 | 0.0 | 1.0 | 0.00 | 0.00 | 0.00 | 71 | 1016.4 |
| 20260906095210 | 0 | 0.0 | 0.0 | 0.00 | 0.00 | 0.00 | |||
| 20260906094957 | 57 | 26 | 1.0 | 2.0 | 0.00 | 0.00 | 0.00 | 70 | 1016.4 |
| 20260906094457 | 57 | 190 | 0.0 | 0.0 | 0.00 | 0.00 | 0.00 | 69 | 1016.5 |
| 20260906094211 | 0 | 0.0 | 0.0 | 0.00 | 0.00 | 0.00 | |||
| 20260906093957 | 57 | 26 | 0.0 | 1.0 | 0.00 | 0.00 | 0.00 | 69 | 1016.4 |
| 20260906093711 | 0 | 0.0 | 0.0 | 0.00 | 0.00 | 0.00 | |||
| 20260906093458 | 57 | 31 | 0.0 | 1.0 | 0.00 | 0.00 | 0.00 | 69 | 1016.4 |
| 20260906093208 | 0 | 0.0 | 0.0 | 0.00 | 0.00 | 0.00 | |||
| 20260906092958 | 57 | 61 | 0.0 | 2.0 | 0.00 | 0.00 | 0.00 | 69 | 1016.5 |
| 20260906092708 | 0 | 0.0 | 0.0 | 0.00 | 0.00 | 0.00 | |||
| 20260906092457 | 57 | 310 | 0.0 | 2.0 | 0.00 | 0.00 | 0.00 | 68 | 1016.5 |
| 20260906092205 | 0 | 0.0 | 0.0 | 0.00 | 0.00 | 0.00 | |||
| 20260906091957 | 57 | 27 | 0.0 | 1.0 | 0.00 | 0.00 | 0.00 | 68 | 1016.5 |
| 20260906091706 | 0 | 0.0 | 0.0 | 0.00 | 0.00 | 0.00 | |||
| 20260906091457 | 57 | 46 | 1.0 | 2.0 | 0.00 | 0.00 | 0.00 | 67 | 1016.5 |
| 20260906091206 | 0 | 0.0 | 0.0 | 0.00 | 0.00 | 0.00 | |||
| 20260906090957 | 57 | 36 | 1.0 | 2.0 | 0.00 | 0.00 | 0.00 | 66 | 1016.5 |
| 20260906090707 | 0 | 0.0 | 0.0 | 0.00 | 0.00 | 0.00 | |||
| 20260906090457 | 57 | 38 | 1.0 | 3.0 | 0.00 | 0.00 | 0.00 | 66 | 1016.6 |
| 20260906090206 | 0 | 0.0 | 0.0 | 0.00 | 0.00 | 0.00 | |||
| 20260906085957 | 57 | 25 | 2.0 | 4.0 | 0.00 | 0.00 | 0.00 | 65 | 1016.6 |
| 20260906085707 | 0 | 0.0 | 0.0 | 0.00 | 0.00 | 0.00 | |||
| 20260906085457 | 58 | 34 | 1.0 | 2.0 | 0.00 | 0.00 | 0.00 | 64 | 1016.7 |
| 20260906085206 | 0 | 0.0 | 0.0 | 0.00 | 0.00 | 0.00 | |||
| 20260906084959 | 58 | 74 | 2.0 | 3.0 | 0.00 | 0.00 | 0.00 | 63 | 1016.7 |
| 20260906084707 | 0 | 0.0 | 0.0 | 0.00 | 0.00 | 0.00 | |||
| 20260906084457 | 58 | 75 | 2.0 | 3.0 | 0.00 | 0.00 | 0.00 | 63 | 1016.8 |
| 20260906084206 | 0 | 0.0 | 0.0 | 0.00 | 0.00 | 0.00 | |||
| 20260906083957 | 58 | 19 | 0.0 | 2.0 | 0.00 | 0.00 | 0.00 | 63 | 1016.8 |
| 20260906083704 | 0 | 0.0 | 0.0 | 0.00 | 0.00 | 0.00 | |||
| 20260906083457 | 58 | 350 | 1.0 | 2.0 | 0.00 | 0.00 | 0.00 | 63 | 1016.8 |
| 20260906083204 | 0 | 0.0 | 0.0 | 0.00 | 0.00 | 0.00 | |||
| 20260906082957 | 58 | 329 | 2.0 | 3.0 | 0.00 | 0.00 | 0.00 | 62 | 1016.8 |
| 20260906082703 | 0 | 0.0 | 0.0 | 0.00 | 0.00 | 0.00 | |||
| 20260906082459 | 58 | 312 | 2.0 | 2.0 | 0.00 | 0.00 | 0.00 | 61 | 1016.8 |
| 20260906082204 | 0 | 0.0 | 0.0 | 0.00 | 0.00 | 0.00 | |||
| 20260906081957 | 58 | 294 | 0.0 | 2.0 | 0.00 | 0.00 | 0.00 | 65 | 1016.8 |
| 20260906081703 | 0 | 0.0 | 0.0 | 0.00 | 0.00 | 0.00 | |||
| 20260906081458 | 58 | 4 | 0.0 | 1.0 | 0.00 | 0.00 | 0.00 | 66 | 1016.8 |
| 20260906080957 | 59 | 297 | 1.0 | 2.0 | 0.00 | 0.00 | 0.00 | 64 | 1016.8 |
| 20260906080704 | 0 | 0.0 | 0.0 | 0.00 | 0.00 | 0.00 | |||
| 20260906080458 | 59 | 282 | 0.0 | 1.0 | 0.00 | 0.00 | 0.00 | 63 | 1016.8 |
| 20260906080203 | 0 | 0.0 | 0.0 | 0.00 | 0.00 | 0.00 | |||
| 20260906075957 | 59 | 313 | 2.0 | 3.0 | 0.00 | 0.00 | 0.00 | 62 | 1016.8 |
| 20260906075704 | 0 | 0.0 | 0.0 | 0.00 | 0.00 | 0.00 | |||
| 20260906075457 | 59 | 303 | 1.0 | 3.0 | 0.00 | 0.00 | 0.00 | 63 | 1016.7 |
| 20260906075204 | 0 | 0.0 | 0.0 | 0.00 | 0.00 | 0.00 | |||
| 20260906074957 | 59 | 284 | 0.0 | 1.0 | 0.00 | 0.00 | 0.00 | 62 | 1016.7 |
| 20260906074704 | 0 | 0.0 | 0.0 | 0.00 | 0.00 | 0.00 | |||
| 20260906074457 | 59 | 320 | 2.0 | 4.0 | 0.00 | 0.00 | 0.00 | 63 | 1016.7 |
| 20260906074203 | 0 | 0.0 | 0.0 | 0.00 | 0.00 | 0.00 | |||
| 20260906073957 | 58 | 360 | 1.0 | 2.0 | 0.00 | 0.00 | 0.00 | 63 | 1016.8 |
| 20260906073702 | 0 | 0.0 | 0.0 | 0.00 | 0.00 | 0.00 | |||
| 20260906073458 | 57 | 2 | 1.0 | 3.0 | 0.00 | 0.00 | 0.00 | 65 | 1016.9 |
| 20260906073201 | 0 | 0.0 | 0.0 | 0.00 | 0.00 | 0.00 | |||
| 20260906072957 | 57 | 28 | 1.0 | 2.0 | 0.00 | 0.00 | 0.00 | 66 | 1016.9 |
| 20260906072702 | 0 | 0.0 | 0.0 | 0.00 | 0.00 | 0.00 | |||
| 20260906072457 | 57 | 21 | 1.0 | 3.0 | 0.00 | 0.00 | 0.00 | 67 | 1016.9 |
| 20260906072201 | 0 | 0.0 | 0.0 | 0.00 | 0.00 | 0.00 | |||
| 20260906071957 | 57 | 31 | 1.0 | 2.0 | 0.00 | 0.00 | 0.00 | 67 | 1016.9 |
| 20260906071457 | 58 | 40 | 1.0 | 2.0 | 0.00 | 0.00 | 0.00 | 66 | 1016.9 |
| 20260906071159 | 0 | 0.0 | 0.0 | 0.00 | 0.00 | 0.00 | |||
| 20260906070957 | 58 | 54 | 2.0 | 3.0 | 0.00 | 0.00 | 0.00 | 65 | 1016.9 |
| 20260906070658 | 0 | 0.0 | 0.0 | 0.00 | 0.00 | 0.00 | |||
| 20260906070457 | 58 | 346 | 0.0 | 1.0 | 0.00 | 0.00 | 0.00 | 65 | 1017.0 |
| 20260906070159 | 0 | 0.0 | 0.0 | 0.00 | 0.00 | 0.00 | |||
| 20260906065957 | 58 | 24 | 0.0 | 2.0 | 0.00 | 0.00 | 0.00 | 65 | 1017.0 |
| 20260906065700 | 0 | 0.0 | 0.0 | 0.00 | 0.00 | 0.00 | |||
| 20260906065457 | 58 | 33 | 1.0 | 3.0 | 0.00 | 0.00 | 0.00 | 67 | 1017.0 |
| 20260906065159 | 0 | 0.0 | 0.0 | 0.00 | 0.00 | 0.00 | |||
| 20260906064957 | 58 | 318 | 2.0 | 4.0 | 0.00 | 0.00 | 0.00 | 65 | 1017.0 |
| 20260906064457 | 57 | 324 | 2.0 | 3.0 | 0.00 | 0.00 | 0.00 | 69 | 1017.1 |
| 20260906063958 | 57 | 339 | 0.0 | 2.0 | 0.00 | 0.00 | 0.00 | 70 | 1017.1 |
| 20260906063657 | 0 | 0.0 | 0.0 | 0.00 | 0.00 | 0.00 | |||
| 20260906063457 | 57 | 29 | 0.0 | 1.0 | 0.00 | 0.00 | 0.00 | 69 | 1017.0 |
| 20260906063156 | 0 | 0.0 | 0.0 | 0.00 | 0.00 | 0.00 | |||
| 20260906062957 | 57 | 39 | 1.0 | 2.0 | 0.00 | 0.00 | 0.00 | 70 | 1017.0 |
| 20260906062656 | 0 | 0.0 | 0.0 | 0.00 | 0.00 | 0.00 | |||
| 20260906062457 | 57 | 34 | 1.0 | 2.0 | 0.00 | 0.00 | 0.00 | 71 | 1016.9 |
| 20260906062154 | 0 | 0.0 | 0.0 | 0.00 | 0.00 | 0.00 | |||
| 20260906061957 | 57 | 37 | 2.0 | 3.0 | 0.00 | 0.00 | 0.00 | 71 | 1017.0 |
| 20260906061653 | 0 | 0.0 | 0.0 | 0.00 | 0.00 | 0.00 | |||
| 20260906061457 | 57 | 43 | 2.0 | 4.0 | 0.00 | 0.00 | 0.00 | 70 | 1016.9 |
| 20260906061154 | 0 | 0.0 | 0.0 | 0.00 | 0.00 | 0.00 | |||
| 20260906060957 | 58 | 48 | 1.0 | 2.0 | 0.00 | 0.00 | 0.00 | 69 | 1016.9 |
| 20260906060713 | 0 | 0.0 | 0.0 | 0.00 | 0.00 | 0.00 | |||
| 20260906060458 | 58 | 35 | 1.0 | 2.0 | 0.00 | 0.00 | 0.00 | 70 | 1016.9 |
| 20260906060153 | 0 | 0.0 | 0.0 | 0.00 | 0.00 | 0.00 | |||
| 20260906055958 | 58 | 26 | 1.0 | 3.0 | 0.00 | 0.00 | 0.00 | 70 | 1016.9 |
| 20260906055654 | 0 | 0.0 | 0.0 | 0.00 | 0.00 | 0.00 | |||
| 20260906055457 | 58 | 28 | 2.0 | 2.0 | 0.00 | 0.00 | 0.00 | 70 | 1016.9 |
| 20260906055154 | 0 | 0.0 | 0.0 | 0.00 | 0.00 | 0.00 | |||
| 20260906054958 | 58 | 28 | 1.0 | 2.0 | 0.00 | 0.00 | 0.00 | 70 | 1016.9 |
| 20260906054653 | 0 | 0.0 | 0.0 | 0.00 | 0.00 | 0.00 | |||
| 20260906054457 | 58 | 30 | 2.0 | 3.0 | 0.00 | 0.00 | 0.00 | 70 | 1017.0 |
| 20260906054154 | 0 | 0.0 | 0.0 | 0.00 | 0.00 | 0.00 | |||
| 20260906053957 | 58 | 40 | 1.0 | 2.0 | 0.00 | 0.00 | 0.00 | 69 | 1017.0 |
| 20260906053457 | 58 | 32 | 1.0 | 3.0 | 0.00 | 0.00 | 0.00 | 69 | 1017.1 |
| 20260906052957 | 58 | 32 | 1.0 | 3.0 | 0.00 | 0.00 | 0.00 | 69 | 1017.1 |
| 20260906052457 | 58 | 44 | 1.0 | 2.0 | 0.00 | 0.00 | 0.00 | 70 | 1017.2 |
| 20260906052148 | 0 | 0.0 | 0.0 | 0.00 | 0.00 | 0.00 | |||
| 20260906051957 | 58 | 45 | 1.0 | 2.0 | 0.00 | 0.00 | 0.00 | 70 | 1017.2 |
| 20260906051457 | 58 | 43 | 1.0 | 2.0 | 0.00 | 0.00 | 0.00 | 70 | 1017.3 |
| 20260906051149 | 0 | 0.0 | 0.0 | 0.00 | 0.00 | 0.00 | |||
| 20260906050957 | 58 | 51 | 1.0 | 2.0 | 0.00 | 0.00 | 0.00 | 71 | 1017.3 |
| 20260906050654 | 0 | 0.0 | 0.0 | 0.00 | 0.00 | 0.00 | |||
| 20260906050457 | 58 | 52 | 2.0 | 2.0 | 0.00 | 0.00 | 0.00 | 72 | 1017.3 |
| 20260906045958 | 58 | 44 | 2.0 | 2.0 | 0.00 | 0.00 | 0.00 | 72 | 1017.3 |
| 20260906045457 | 58 | 45 | 2.0 | 3.0 | 0.00 | 0.00 | 0.00 | 71 | 1017.3 |
| 20260906045151 | 0 | 0.0 | 0.0 | 0.00 | 0.00 | 0.00 | |||
| 20260906044957 | 58 | 30 | 2.0 | 2.0 | 0.00 | 0.00 | 0.00 | 71 | 1017.3 |
| 20260906044647 | 0 | 0.0 | 0.0 | 0.00 | 0.00 | 0.00 | |||
| 20260906044456 | 58 | 34 | 1.0 | 2.0 | 0.00 | 0.00 | 0.00 | 71 | 1017.4 |
| 20260906044146 | 0 | 0.0 | 0.0 | 0.00 | 0.00 | 0.00 | |||
| 20260906043957 | 58 | 33 | 2.0 | 4.0 | 0.00 | 0.00 | 0.00 | 71 | 1017.4 |
| 20260906043647 | 0 | 0.0 | 0.0 | 0.00 | 0.00 | 0.00 | |||
| 20260906043458 | 58 | 27 | 1.0 | 2.0 | 0.00 | 0.00 | 0.00 | 71 | 1017.4 |
| 20260906043146 | 0 | 0.0 | 0.0 | 0.00 | 0.00 | 0.00 | |||
| 20260906042958 | 58 | 38 | 2.0 | 2.0 | 0.00 | 0.00 | 0.00 | 70 | 1017.4 |
| 20260906042457 | 59 | 54 | 1.0 | 2.0 | 0.00 | 0.00 | 0.00 | 70 | 1017.3 |
| 20260906042147 | 0 | 0.0 | 0.0 | 0.00 | 0.00 | 0.00 | |||
| 20260906041957 | 59 | 41 | 1.0 | 2.0 | 0.00 | 0.00 | 0.00 | 70 | 1017.3 |
| 20260906041646 | 0 | 0.0 | 0.0 | 0.00 | 0.00 | 0.00 | |||
| 20260906041458 | 59 | 36 | 1.0 | 3.0 | 0.00 | 0.00 | 0.00 | 70 | 1017.3 |
| 20260906041147 | 0 | 0.0 | 0.0 | 0.00 | 0.00 | 0.00 | |||
| 20260906040957 | 59 | 36 | 1.0 | 2.0 | 0.00 | 0.00 | 0.00 | 69 | 1017.3 |
| 20260906040646 | 0 | 0.0 | 0.0 | 0.00 | 0.00 | 0.00 | |||
| 20260906040457 | 59 | 24 | 1.0 | 2.0 | 0.00 | 0.00 | 0.00 | 69 | 1017.3 |
| 20260906040147 | 0 | 0.0 | 0.0 | 0.00 | 0.00 | 0.00 | |||
| 20260906035956 | 59 | 30 | 2.0 | 2.0 | 0.00 | 0.00 | 0.00 | 69 | 1017.3 |
| 20260906035457 | 59 | 29 | 1.0 | 2.0 | 0.00 | 0.00 | 0.00 | 68 | 1017.2 |
| 20260906034646 | 0 | 0.0 | 0.0 | 0.00 | 0.00 | 0.00 | |||
| 20260906034528 | 59 | 39 | 1.0 | 3.0 | 0.00 | 0.00 | 0.00 | 68 | 1017.2 |
| 20260906034145 | 0 | 0.0 | 0.0 | 0.00 | 0.00 | 0.00 | |||
| 20260906033957 | 60 | 28 | 1.0 | 2.0 | 0.00 | 0.00 | 0.00 | 68 | 1017.1 |
| 20260906033644 | 0 | 0.0 | 0.0 | 0.00 | 0.00 | 0.00 | |||
| 20260906033457 | 60 | 33 | 1.0 | 3.0 | 0.00 | 0.00 | 0.00 | 67 | 1017.1 |
| 20260906033142 | 0 | 0.0 | 0.0 | 0.00 | 0.00 | 0.00 | |||
| 20260906032957 | 60 | 40 | 1.0 | 4.0 | 0.00 | 0.00 | 0.00 | 67 | 1017.1 |
| 20260906032642 | 0 | 0.0 | 0.0 | 0.00 | 0.00 | 0.00 | |||
| 20260906032457 | 60 | 31 | 1.0 | 2.0 | 0.00 | 0.00 | 0.00 | 67 | 1017.2 |
| 20260906032138 | 0 | 0.0 | 0.0 | 0.00 | 0.00 | 0.00 | |||
| 20260906031958 | 60 | 45 | 2.0 | 3.0 | 0.00 | 0.00 | 0.00 | 67 | 1017.2 |
| 20260906031638 | 0 | 0.0 | 0.0 | 0.00 | 0.00 | 0.00 | |||
| 20260906031457 | 60 | 28 | 1.0 | 2.0 | 0.00 | 0.00 | 0.00 | 67 | 1017.2 |
| 20260906031139 | 0 | 0.0 | 0.0 | 0.00 | 0.00 | 0.00 | |||
| 20260906030957 | 61 | 41 | 2.0 | 4.0 | 0.00 | 0.00 | 0.00 | 66 | 1017.3 |
| 20260906030640 | 0 | 0.0 | 0.0 | 0.00 | 0.00 | 0.00 | |||
| 20260906030457 | 61 | 210 | 0.0 | 2.0 | 0.00 | 0.00 | 0.00 | 65 | 1017.3 |
| 20260906030138 | 0 | 0.0 | 0.0 | 0.00 | 0.00 | 0.00 | |||
| 20260906025957 | 62 | 265 | 0.0 | 1.0 | 0.00 | 0.00 | 0.00 | 64 | 1017.3 |
| 20260906025639 | 0 | 0.0 | 0.0 | 0.00 | 0.00 | 0.00 | |||
| 20260906025457 | 63 | 272 | 0.0 | 2.0 | 0.00 | 0.00 | 0.00 | 63 | 1017.4 |
| 20260906025139 | 0 | 0.0 | 0.0 | 0.00 | 0.00 | 0.00 | |||
| 20260906024957 | 63 | 324 | 0.0 | 0.0 | 0.00 | 0.00 | 0.00 | 62 | 1017.4 |
| 20260906024457 | 64 | 274 | 1.0 | 2.0 | 0.00 | 0.00 | 0.00 | 61 | 1017.4 |
| 20260906024138 | 0 | 0.0 | 0.0 | 0.00 | 0.00 | 0.00 | |||
| 20260906023957 | 64 | 235 | 0.0 | 0.0 | 0.00 | 0.00 | 0.00 | 59 | 1017.4 |
| 20260906023639 | 0 | 0.0 | 0.0 | 0.00 | 0.00 | 0.00 | |||
| 20260906023459 | 64 | 296 | 0.0 | 2.0 | 0.00 | 0.00 | 0.00 | 59 | 1017.4 |
| 20260906023136 | 0 | 0.0 | 0.0 | 0.00 | 0.00 | 0.00 | |||
| 20260906022958 | 64 | 300 | 2.0 | 3.0 | 0.00 | 0.00 | 0.00 | 59 | 1017.4 |
| 20260906022636 | 0 | 0.0 | 0.0 | 0.00 | 0.00 | 0.00 | |||
| 20260906022458 | 65 | 306 | 2.0 | 4.0 | 0.00 | 0.00 | 0.00 | 59 | 1017.3 |
| 20260906022137 | 0 | 0.0 | 0.0 | 0.00 | 0.00 | 0.00 | |||
| 20260906021957 | 65 | 292 | 2.0 | 3.0 | 0.00 | 0.00 | 0.00 | 58 | 1017.2 |
| 20260906021637 | 0 | 0.0 | 0.0 | 0.00 | 0.00 | 0.00 | |||
| 20260906021458 | 65 | 279 | 1.0 | 2.0 | 0.00 | 0.00 | 0.00 | 57 | 1017.2 |
| 20260906021136 | 0 | 0.0 | 0.0 | 0.00 | 0.00 | 0.00 | |||
| 20260906020957 | 66 | 283 | 2.0 | 3.0 | 0.00 | 0.00 | 0.00 | 56 | 1017.1 |
| 20260906020637 | 0 | 0.0 | 0.0 | 0.00 | 0.00 | 0.00 | |||
| 20260906020457 | 66 | 294 | 2.0 | 4.0 | 0.00 | 0.00 | 0.00 | 56 | 1017.1 |
| 20260906015958 | 67 | 284 | 2.0 | 4.0 | 0.00 | 0.00 | 0.00 | 56 | 1017.0 |
| 20260906015637 | 0 | 0.0 | 0.0 | 0.00 | 0.00 | 0.00 | |||
| 20260906015457 | 67 | 300 | 2.0 | 4.0 | 0.00 | 0.00 | 0.00 | 55 | 1017.0 |
| 20260906014957 | 68 | 265 | 3.0 | 4.0 | 0.00 | 0.00 | 0.00 | 53 | 1016.9 |
| 20260906014636 | 0 | 0.0 | 0.0 | 0.00 | 0.00 | 0.00 | |||
| 20260906014457 | 68 | 284 | 2.0 | 3.0 | 0.00 | 0.00 | 0.00 | 53 | 1016.9 |
| 20260906014135 | 0 | 0.0 | 0.0 | 0.00 | 0.00 | 0.00 | |||
| 20260906013957 | 67 | 282 | 2.0 | 3.0 | 0.00 | 0.00 | 0.00 | 54 | 1016.8 |
| 20260906013636 | 0 | 0.0 | 0.0 | 0.00 | 0.00 | 0.00 | |||
| 20260906013458 | 67 | 291 | 3.0 | 4.0 | 0.00 | 0.00 | 0.00 | 55 | 1016.8 |
| 20260906013135 | 0 | 0.0 | 0.0 | 0.00 | 0.00 | 0.00 | |||
| 20260906012957 | 68 | 309 | 2.0 | 4.0 | 0.00 | 0.00 | 0.00 | 55 | 1016.8 |
| 20260906012634 | 0 | 0.0 | 0.0 | 0.00 | 0.00 | 0.00 | |||
| 20260906012457 | 68 | 259 | 1.0 | 2.0 | 0.00 | 0.00 | 0.00 | 54 | 1016.8 |
| 20260906012135 | 0 | 0.0 | 0.0 | 0.00 | 0.00 | 0.00 | |||
| 20260906011957 | 68 | 279 | 2.0 | 4.0 | 0.00 | 0.00 | 0.00 | 53 | 1016.7 |
| 20260906011635 | 0 | 0.0 | 0.0 | 0.00 | 0.00 | 0.00 | |||
| 20260906011457 | 68 | 251 | 2.0 | 4.0 | 0.00 | 0.00 | 0.00 | 53 | 1016.7 |
| 20260906011134 | 0 | 0.0 | 0.0 | 0.00 | 0.00 | 0.00 | |||
| 20260906010957 | 68 | 270 | 3.0 | 6.0 | 0.00 | 0.00 | 0.00 | 53 | 1016.7 |
| 20260906010635 | 0 | 0.0 | 0.0 | 0.00 | 0.00 | 0.00 | |||
| 20260906010458 | 68 | 269 | 1.0 | 3.0 | 0.00 | 0.00 | 0.00 | 54 | 1016.7 |
| 20260906010136 | 0 | 0.0 | 0.0 | 0.00 | 0.00 | 0.00 | |||
| 20260906005956 | 67 | 236 | 1.0 | 2.0 | 0.00 | 0.00 | 0.00 | 54 | 1016.7 |
| 20260906005634 | 0 | 0.0 | 0.0 | 0.00 | 0.00 | 0.00 | |||
| 20260906005458 | 67 | 302 | 2.0 | 4.0 | 0.00 | 0.00 | 0.00 | 54 | 1016.7 |
| 20260906005135 | 0 | 0.0 | 0.0 | 0.00 | 0.00 | 0.00 | |||
| 20260906004957 | 67 | 298 | 4.0 | 5.0 | 0.00 | 0.00 | 0.00 | 54 | 1016.7 |
| 20260906004635 | 0 | 0.0 | 0.0 | 0.00 | 0.00 | 0.00 | |||
| 20260906004457 | 67 | 271 | 3.0 | 5.0 | 0.00 | 0.00 | 0.00 | 53 | 1016.7 |
| 20260906004132 | 0 | 0.0 | 0.0 | 0.00 | 0.00 | 0.00 | |||
| 20260906003957 | 67 | 280 | 4.0 | 5.0 | 0.00 | 0.00 | 0.00 | 55 | 1016.7 |
| 20260906003633 | 0 | 0.0 | 0.0 | 0.00 | 0.00 | 0.00 | |||
| 20260906003457 | 68 | 299 | 3.0 | 6.0 | 0.00 | 0.00 | 0.00 | 55 | 1016.6 |
| 20260906002957 | 68 | 283 | 2.0 | 4.0 | 0.00 | 0.00 | 0.00 | 56 | 1016.6 |
| 20260906002632 | 0 | 0.0 | 0.0 | 0.00 | 0.00 | 0.00 | |||
| 20260906002457 | 67 | 298 | 3.0 | 5.0 | 0.00 | 0.00 | 0.00 | 55 | 1016.6 |
| 20260906002132 | 0 | 0.0 | 0.0 | 0.00 | 0.00 | 0.00 | |||
| 20260906001957 | 67 | 307 | 3.0 | 5.0 | 0.00 | 0.00 | 0.00 | 58 | 1016.6 |
| 20260906001633 | 0 | 0.0 | 0.0 | 0.00 | 0.00 | 0.00 | |||
| 20260906001457 | 67 | 286 | 4.0 | 8.0 | 0.00 | 0.00 | 0.00 | 57 | 1016.6 |
| 20260906001133 | 0 | 0.0 | 0.0 | 0.00 | 0.00 | 0.00 | |||
| 20260906000957 | 67 | 291 | 2.0 | 7.0 | 0.00 | 0.00 | 0.00 | 59 | 1016.6 |
| 20260906000633 | 0 | 0.0 | 0.0 | 0.00 | 0.00 | 0.00 | |||
| 20260906000457 | 66 | 278 | 3.0 | 5.0 | 0.00 | 0.00 | 0.00 | 58 | 1016.6 |
| 20260906000133 | 0 | 0.0 | 0.0 | 0.00 | 0.00 | 0.00 | |||
| 20260905235957 | 66 | 294 | 3.0 | 6.0 | 0.00 | 0.00 | 0.00 | 59 | 1016.6 |
| 20260905235633 | 0 | 0.0 | 0.0 | 0.00 | 0.00 | 0.00 | |||
| 20260905235458 | 66 | 299 | 4.0 | 6.0 | 0.00 | 0.00 | 0.00 | 57 | 1016.6 |
| 20260905235133 | 0 | 0.0 | 0.0 | 0.00 | 0.00 | 0.00 | |||
| 20260905234957 | 66 | 299 | 4.0 | 5.0 | 0.00 | 0.00 | 0.00 | 58 | 1016.6 |
| 20260905234630 | 0 | 0.0 | 0.0 | 0.00 | 0.00 | 0.00 | |||
| 20260905234457 | 66 | 302 | 3.0 | 7.0 | 0.00 | 0.00 | 0.00 | 59 | 1016.5 |
| 20260905234131 | 0 | 0.0 | 0.0 | 0.00 | 0.00 | 0.00 | |||
| 20260905233957 | 67 | 277 | 2.0 | 5.0 | 0.00 | 0.00 | 0.00 | 59 | 1016.5 |
| 20260905233630 | 0 | 0.0 | 0.0 | 0.00 | 0.00 | 0.00 | |||
| 20260905233458 | 67 | 298 | 4.0 | 8.0 | 0.00 | 0.00 | 0.00 | 59 | 1016.5 |
| 20260905233130 | 0 | 0.0 | 0.0 | 0.00 | 0.00 | 0.00 | |||
| 20260905232958 | 66 | 284 | 2.0 | 6.0 | 0.00 | 0.00 | 0.00 | 59 | 1016.4 |
| 20260905232631 | 0 | 0.0 | 0.0 | 0.00 | 0.00 | 0.00 | |||
| 20260905232457 | 66 | 290 | 4.0 | 6.0 | 0.00 | 0.00 | 0.00 | 59 | 1016.4 |
| 20260905232130 | 0 | 0.0 | 0.0 | 0.00 | 0.00 | 0.00 | |||
| 20260905231957 | 67 | 305 | 4.0 | 6.0 | 0.00 | 0.00 | 0.00 | 59 | 1016.4 |
| 20260905231631 | 0 | 0.0 | 0.0 | 0.00 | 0.00 | 0.00 | |||
| 20260905231457 | 66 | 336 | 2.0 | 4.0 | 0.00 | 0.00 | 0.00 | 59 | 1016.4 |
| 20260905231132 | 0 | 0.0 | 0.0 | 0.00 | 0.00 | 0.00 | |||
| 20260905230958 | 66 | 276 | 3.0 | 6.0 | 0.00 | 0.00 | 0.00 | 59 | 1016.4 |
| 20260905230457 | 66 | 281 | 4.0 | 7.0 | 0.00 | 0.00 | 0.00 | 61 | 1016.5 |
| 20260905225957 | 66 | 296 | 4.0 | 6.0 | 0.00 | 0.00 | 0.00 | 59 | 1016.5 |
| 20260905225630 | 0 | 0.0 | 0.0 | 0.00 | 0.00 | 0.00 | |||
| 20260905225457 | 66 | 292 | 3.0 | 8.0 | 0.00 | 0.00 | 0.00 | 62 | 1016.5 |
| 20260905225129 | 0 | 0.0 | 0.0 | 0.00 | 0.00 | 0.00 | |||
| 20260905224957 | 66 | 292 | 4.0 | 7.0 | 0.00 | 0.00 | 0.00 | 60 | 1016.5 |
| 20260905224628 | 0 | 0.0 | 0.0 | 0.00 | 0.00 | 0.00 | |||
| 20260905224457 | 67 | 295 | 3.0 | 7.0 | 0.00 | 0.00 | 0.00 | 61 | 1016.5 |
| 20260905224132 | 0 | 0.0 | 0.0 | 0.00 | 0.00 | 0.00 | |||
| 20260905223957 | 68 | 274 | 4.0 | 6.0 | 0.00 | 0.00 | 0.00 | 59 | 1016.5 |
| 20260905223625 | 0 | 0.0 | 0.0 | 0.00 | 0.00 | 0.00 | |||
| 20260905223457 | 68 | 274 | 2.0 | 6.0 | 0.00 | 0.00 | 0.00 | 57 | 1016.4 |
| 20260905223135 | 0 | 0.0 | 0.0 | 0.00 | 0.00 | 0.00 | |||
| 20260905222957 | 67 | 267 | 3.0 | 9.0 | 0.00 | 0.00 | 0.00 | 59 | 1016.5 |
| 20260905222458 | 68 | 275 | 4.0 | 7.0 | 0.00 | 0.00 | 0.00 | 57 | 1016.5 |
| 20260905221957 | 68 | 282 | 4.0 | 6.0 | 0.00 | 0.00 | 0.00 | 57 | 1016.5 |
| 20260905221623 | 0 | 0.0 | 0.0 | 0.00 | 0.00 | 0.00 | |||
| 20260905221457 | 69 | 278 | 3.0 | 5.0 | 0.00 | 0.00 | 0.00 | 56 | 1016.5 |
| 20260905221123 | 0 | 0.0 | 0.0 | 0.00 | 0.00 | 0.00 | |||
| 20260905220957 | 68 | 240 | 3.0 | 6.0 | 0.00 | 0.00 | 0.00 | 55 | 1016.5 |
| 20260905220623 | 0 | 0.0 | 0.0 | 0.00 | 0.00 | 0.00 | |||
| 20260905220458 | 68 | 304 | 2.0 | 5.0 | 0.00 | 0.00 | 0.00 | 57 | 1016.5 |
| 20260905220123 | 0 | 0.0 | 0.0 | 0.00 | 0.00 | 0.00 | |||
| 20260905215957 | 68 | 298 | 2.0 | 4.0 | 0.00 | 0.00 | 0.00 | 57 | 1016.4 |
| 20260905215457 | 68 | 290 | 3.0 | 4.0 | 0.00 | 0.00 | 0.00 | 57 | 1016.5 |
| 20260905215123 | 0 | 0.0 | 0.0 | 0.00 | 0.00 | 0.00 | |||
| 20260905214959 | 68 | 257 | 4.0 | 9.0 | 0.00 | 0.00 | 0.00 | 57 | 1016.4 |
| 20260905214624 | 0 | 0.0 | 0.0 | 0.00 | 0.00 | 0.00 | |||
| 20260905214457 | 67 | 270 | 2.0 | 5.0 | 0.00 | 0.00 | 0.00 | 57 | 1016.5 |
| 20260905214121 | 0 | 0.0 | 0.0 | 0.00 | 0.00 | 0.00 | |||
| 20260905213959 | 67 | 268 | 5.0 | 9.0 | 0.00 | 0.00 | 0.00 | 59 | 1016.5 |
| 20260905213618 | 0 | 0.0 | 0.0 | 0.00 | 0.00 | 0.00 | |||
| 20260905213457 | 68 | 278 | 3.0 | 6.0 | 0.00 | 0.00 | 0.00 | 57 | 1016.5 |
| 20260905213117 | 0 | 0.0 | 0.0 | 0.00 | 0.00 | 0.00 | |||
| 20260905212957 | 67 | 273 | 2.0 | 7.0 | 0.00 | 0.00 | 0.00 | 58 | 1016.5 |
| 20260905212618 | 0 | 0.0 | 0.0 | 0.00 | 0.00 | 0.00 | |||
| 20260905212458 | 67 | 277 | 1.0 | 3.0 | 0.00 | 0.00 | 0.00 | 58 | 1016.5 |
| 20260905212117 | 0 | 0.0 | 0.0 | 0.00 | 0.00 | 0.00 | |||
| 20260905211957 | 66 | 256 | 3.0 | 6.0 | 0.00 | 0.00 | 0.00 | 59 | 1016.6 |
| 20260905211618 | 0 | 0.0 | 0.0 | 0.00 | 0.00 | 0.00 | |||
| 20260905211457 | 66 | 264 | 2.0 | 3.0 | 0.00 | 0.00 | 0.00 | 60 | 1016.7 |
| 20260905211118 | 0 | 0.0 | 0.0 | 0.00 | 0.00 | 0.00 | |||
| 20260905210957 | 65 | 262 | 2.0 | 4.0 | 0.00 | 0.00 | 0.00 | 61 | 1016.7 |
| 20260905210618 | 0 | 0.0 | 0.0 | 0.00 | 0.00 | 0.00 | |||
| 20260905210457 | 66 | 295 | 5.0 | 8.0 | 0.00 | 0.00 | 0.00 | 61 | 1016.8 |
| 20260905205957 | 65 | 280 | 3.0 | 6.0 | 0.00 | 0.00 | 0.00 | 62 | 1016.8 |
| 20260905205618 | 0 | 0.0 | 0.0 | 0.00 | 0.00 | 0.00 | |||
| 20260905205457 | 65 | 267 | 4.0 | 9.0 | 0.00 | 0.00 | 0.00 | 62 | 1016.8 |
| 20260905205118 | 0 | 0.0 | 0.0 | 0.00 | 0.00 | 0.00 | |||
| 20260905204957 | 65 | 250 | 3.0 | 5.0 | 0.00 | 0.00 | 0.00 | 64 | 1016.8 |
| 20260905204615 | 0 | 0.0 | 0.0 | 0.00 | 0.00 | 0.00 | |||
| 20260905204457 | 64 | 265 | 3.0 | 7.0 | 0.00 | 0.00 | 0.00 | 63 | 1016.8 |
| 20260905204115 | 0 | 0.0 | 0.0 | 0.00 | 0.00 | 0.00 | |||
| 20260905203957 | 64 | 298 | 4.0 | 7.0 | 0.00 | 0.00 | 0.00 | 65 | 1016.9 |
| 20260905203616 | 0 | 0.0 | 0.0 | 0.00 | 0.00 | 0.00 | |||
| 20260905203457 | 64 | 294 | 3.0 | 6.0 | 0.00 | 0.00 | 0.00 | 65 | 1017.0 |
| 20260905202957 | 64 | 295 | 3.0 | 6.0 | 0.00 | 0.00 | 0.00 | 65 | 1017.0 |
| 20260905202616 | 0 | 0.0 | 0.0 | 0.00 | 0.00 | 0.00 | |||
| 20260905202457 | 64 | 273 | 5.0 | 10.0 | 0.00 | 0.00 | 0.00 | 67 | 1017.1 |
| 20260905201957 | 64 | 267 | 5.0 | 8.0 | 0.00 | 0.00 | 0.00 | 64 | 1017.0 |
| 20260905201458 | 64 | 256 | 5.0 | 9.0 | 0.00 | 0.00 | 0.00 | 66 | 1016.9 |
| 20260905201116 | 0 | 0.0 | 0.0 | 0.00 | 0.00 | 0.00 | |||
| 20260905200958 | 64 | 268 | 4.0 | 8.0 | 0.00 | 0.00 | 0.00 | 68 | 1016.8 |
| 20260905200615 | 0 | 0.0 | 0.0 | 0.00 | 0.00 | 0.00 | |||
| 20260905200457 | 63 | 284 | 3.0 | 6.0 | 0.00 | 0.00 | 0.00 | 69 | 1016.9 |
| 20260905200116 | 0 | 0.0 | 0.0 | 0.00 | 0.00 | 0.00 | |||
| 20260905195957 | 63 | 286 | 3.0 | 5.0 | 0.00 | 0.00 | 0.00 | 70 | 1016.9 |
| 20260905195616 | 0 | 0.0 | 0.0 | 0.00 | 0.00 | 0.00 | |||
| 20260905195457 | 63 | 311 | 4.0 | 10.0 | 0.00 | 0.00 | 0.00 | 71 | 1017.0 |
| 20260905195117 | 0 | 0.0 | 0.0 | 0.00 | 0.00 | 0.00 | |||
| 20260905194958 | 64 | 285 | 3.0 | 5.0 | 0.00 | 0.00 | 0.00 | 71 | 1017.0 |
| 20260905194613 | 0 | 0.0 | 0.0 | 0.00 | 0.00 | 0.00 | |||
| 20260905194458 | 64 | 280 | 2.0 | 5.0 | 0.00 | 0.00 | 0.00 | 70 | 1016.9 |
| 20260905194113 | 0 | 0.0 | 0.0 | 0.00 | 0.00 | 0.00 | |||
| 20260905193956 | 63 | 291 | 3.0 | 5.0 | 0.00 | 0.00 | 0.00 | 70 | 1017.0 |
| 20260905193613 | 0 | 0.0 | 0.0 | 0.00 | 0.00 | 0.00 | |||
| 20260905193457 | 63 | 307 | 4.0 | 6.0 | 0.00 | 0.00 | 0.00 | 71 | 1017.3 |
| 20260905193114 | 0 | 0.0 | 0.0 | 0.00 | 0.00 | 0.00 | |||
| 20260905192957 | 63 | 299 | 4.0 | 5.0 | 0.00 | 0.00 | 0.00 | 71 | 1017.1 |
| 20260905192613 | 0 | 0.0 | 0.0 | 0.00 | 0.00 | 0.00 | |||
| 20260905192457 | 64 | 290 | 4.0 | 7.0 | 0.00 | 0.00 | 0.00 | 70 | 1017.0 |
| 20260905192113 | 0 | 0.0 | 0.0 | 0.00 | 0.00 | 0.00 | |||
| 20260905191957 | 63 | 267 | 4.0 | 6.0 | 0.00 | 0.00 | 0.00 | 71 | 1017.0 |
| 20260905191613 | 0 | 0.0 | 0.0 | 0.00 | 0.00 | 0.00 | |||
| 20260905191457 | 62 | 288 | 3.0 | 8.0 | 0.00 | 0.00 | 0.00 | 75 | 1017.1 |
| 20260905191114 | 0 | 0.0 | 0.0 | 0.00 | 0.00 | 0.00 | |||
| 20260905190957 | 62 | 214 | 2.0 | 5.0 | 0.00 | 0.00 | 0.00 | 75 | 1017.1 |
| 20260905190614 | 0 | 0.0 | 0.0 | 0.00 | 0.00 | 0.00 | |||
| 20260905190502 | 62 | 283 | 3.0 | 5.0 | 0.00 | 0.00 | 0.00 | 75 | 1017.1 |
| 20260905185957 | 62 | 256 | 2.0 | 5.0 | 0.00 | 0.00 | 0.00 | 75 | 1017.1 |
| 20260905185611 | 0 | 0.0 | 0.0 | 0.00 | 0.00 | 0.00 | |||
| 20260905185457 | 62 | 282 | 2.0 | 4.0 | 0.00 | 0.00 | 0.00 | 75 | 1017.1 |
| 20260905184957 | 61 | 242 | 2.0 | 5.0 | 0.00 | 0.00 | 0.00 | 77 | 1017.1 |
| 20260905184457 | 60 | 288 | 1.0 | 2.0 | 0.00 | 0.00 | 0.00 | 79 | 1017.2 |
| 20260905183957 | 60 | 309 | 4.0 | 7.0 | 0.00 | 0.00 | 0.00 | 80 | 1017.5 |
| 20260905183457 | 61 | 284 | 2.0 | 3.0 | 0.00 | 0.00 | 0.00 | 80 | 1017.3 |
| 20260905182957 | 61 | 285 | 5.0 | 9.0 | 0.00 | 0.00 | 0.00 | 79 | 1017.2 |
| 20260905182609 | 0 | 0.0 | 0.0 | 0.00 | 0.00 | 0.00 | |||
| 20260905182457 | 60 | 291 | 5.0 | 9.0 | 0.00 | 0.00 | 0.00 | 78 | 1017.3 |
| 20260905182109 | 0 | 0.0 | 0.0 | 0.00 | 0.00 | 0.00 | |||
| 20260905181957 | 60 | 302 | 3.0 | 5.0 | 0.00 | 0.00 | 0.00 | 79 | 1017.3 |
| 20260905181608 | 0 | 0.0 | 0.0 | 0.00 | 0.00 | 0.00 | |||
| 20260905181458 | 60 | 290 | 3.0 | 6.0 | 0.00 | 0.00 | 0.00 | 79 | 1017.3 |
| 20260905181109 | 0 | 0.0 | 0.0 | 0.00 | 0.00 | 0.00 | |||
| 20260905180957 | 60 | 284 | 3.0 | 6.0 | 0.00 | 0.00 | 0.00 | 77 | 1017.3 |
| 20260905180609 | 0 | 0.0 | 0.0 | 0.00 | 0.00 | 0.00 | |||
| 20260905180457 | 60 | 326 | 2.0 | 4.0 | 0.00 | 0.00 | 0.00 | 77 | 1017.3 |
| 20260905180110 | 0 | 0.0 | 0.0 | 0.00 | 0.00 | 0.00 | |||
| 20260905175957 | 59 | 320 | 2.0 | 5.0 | 0.00 | 0.00 | 0.00 | 78 | 1017.2 |
| 20260905175609 | 0 | 0.0 | 0.0 | 0.00 | 0.00 | 0.00 | |||
| 20260905175457 | 59 | 300 | 3.0 | 8.0 | 0.00 | 0.00 | 0.00 | 79 | 1017.2 |
| 20260905175109 | 0 | 0.0 | 0.0 | 0.00 | 0.00 | 0.00 | |||
| 20260905174957 | 58 | 290 | 2.0 | 6.0 | 0.00 | 0.00 | 0.00 | 80 | 1017.2 |
| 20260905174609 | 0 | 0.0 | 0.0 | 0.00 | 0.00 | 0.00 | |||
| 20260905174457 | 58 | 305 | 3.0 | 5.0 | 0.00 | 0.00 | 0.00 | 82 | 1017.2 |
| 20260905174107 | 0 | 0.0 | 0.0 | 0.00 | 0.00 | 0.00 | |||
| 20260905173958 | 58 | 289 | 1.0 | 3.0 | 0.00 | 0.00 | 0.00 | 83 | 1017.3 |
| 20260905173607 | 0 | 0.0 | 0.0 | 0.00 | 0.00 | 0.00 | |||
| 20260905173457 | 58 | 296 | 3.0 | 6.0 | 0.00 | 0.00 | 0.00 | 83 | 1017.4 |
| 20260905173107 | 0 | 0.0 | 0.0 | 0.00 | 0.00 | 0.00 | |||
| 20260905172958 | 58 | 302 | 5.0 | 7.0 | 0.00 | 0.00 | 0.00 | 82 | 1017.4 |
| 20260905172606 | 0 | 0.0 | 0.0 | 0.00 | 0.00 | 0.00 | |||
| 20260905172457 | 58 | 186 | 2.0 | 4.0 | 0.00 | 0.00 | 0.00 | 83 | 1017.3 |
| 20260905172107 | 0 | 0.0 | 0.0 | 0.00 | 0.00 | 0.00 | |||
| 20260905171957 | 58 | 166 | 2.0 | 3.0 | 0.00 | 0.00 | 0.00 | 84 | 1017.4 |
| 20260905171606 | 0 | 0.0 | 0.0 | 0.00 | 0.00 | 0.00 | |||
| 20260905171458 | 58 | 210 | 0.0 | 1.0 | 0.00 | 0.00 | 0.00 | 85 | 1017.4 |
| 20260905171107 | 0 | 0.0 | 0.0 | 0.00 | 0.00 | 0.00 | |||
| 20260905170957 | 57 | 227 | 2.0 | 4.0 | 0.00 | 0.00 | 0.00 | 87 | 1017.4 |
| 20260905170457 | 56 | 306 | 0.0 | 1.0 | 0.00 | 0.00 | 0.00 | 88 | 1017.5 |
| 20260905170107 | 0 | 0.0 | 0.0 | 0.00 | 0.00 | 0.00 | |||
| 20260905165958 | 56 | 289 | 3.0 | 4.0 | 0.00 | 0.00 | 0.00 | 89 | 1017.5 |
| 20260905165607 | 0 | 0.0 | 0.0 | 0.00 | 0.00 | 0.00 | |||
| 20260905165457 | 56 | 236 | 0.0 | 2.0 | 0.00 | 0.00 | 0.00 | 89 | 1017.5 |
| 20260905165104 | 0 | 0.0 | 0.0 | 0.00 | 0.00 | 0.00 | |||
| 20260905164957 | 55 | 317 | 1.0 | 2.0 | 0.00 | 0.00 | 0.00 | 90 | 1017.5 |
| 20260905164604 | 0 | 0.0 | 0.0 | 0.00 | 0.00 | 0.00 | |||
| 20260905164457 | 55 | 310 | 3.0 | 6.0 | 0.00 | 0.00 | 0.00 | 90 | 1017.4 |
| 20260905164104 | 0 | 0.0 | 0.0 | 0.00 | 0.00 | 0.00 | |||
| 20260905163957 | 55 | 306 | 3.0 | 6.0 | 0.00 | 0.00 | 0.00 | 89 | 1017.4 |
| 20260905163604 | 0 | 0.0 | 0.0 | 0.00 | 0.00 | 0.00 | |||
| 20260905163457 | 55 | 309 | 1.0 | 2.0 | 0.00 | 0.00 | 0.00 | 89 | 1017.4 |
| 20260905162957 | 55 | 320 | 1.0 | 4.0 | 0.00 | 0.00 | 0.00 | 90 | 1017.4 |
| 20260905162601 | 0 | 0.0 | 0.0 | 0.00 | 0.00 | 0.00 | |||
| 20260905162457 | 55 | 303 | 2.0 | 3.0 | 0.00 | 0.00 | 0.00 | 89 | 1017.4 |